Overview Statistics Trail Chart Weather Telemetry Raw packets
 

This is the latest recevied weather packets stored in our database for station/object 4S6DRJ-13. If no packets are shown the sender has not sent any weather packets the latest 10 day(s).

<< 25 26 27 28 29 30 31 >>
Time Temp. Humidity Pressure Rain* Wind** Luminosity Snow
1788406922 29.44° C 77% 1010.7 hPa 0 mm 1.79 m/s, 171° 1106 W/m² -
1788406860 29.44° C 76% 1010.8 hPa 0 mm 1.34 m/s, 305° 1103 W/m² -
1788406800 29.44° C 77% 1010.7 hPa 0 mm 2.68 m/s, 359° 1102 W/m² -
1788406738 29.44° C 77% 1010.5 hPa 0 mm 1.79 m/s, 293° 379 W/m² -
1788406678 29.44° C 78% 1010.7 hPa 0 mm 1.79 m/s, 158° 347 W/m² -
1788406616 29.44° C 78% 1010.6 hPa 0 mm 1.34 m/s, 329° 397 W/m² -
1788406555 29.44° C 78% 1010.7 hPa 0 mm 0.89 m/s, 78° 462 W/m² -
1788406495 29.44° C 78% 1010.6 hPa 0 mm 2.68 m/s, 283° 949 W/m² -
1788406433 29.44° C 78% 1010.4 hPa 0 mm 0.89 m/s, 233° 349 W/m² -
1788406373 29.44° C 78% 1010.6 hPa 0 mm 1.34 m/s, 210° 445 W/m² -
1788406312 29.44° C 77% 1010.7 hPa 0 mm 1.79 m/s, 270° 772 W/m² -
1788406251 29.44° C 77% 1010.5 hPa 0 mm 1.79 m/s, 140° 337 W/m² -
1788406190 29.44° C 77% 1010.6 hPa 0 mm 2.24 m/s, 16° 322 W/m² -
1788406129 29.44° C 77% 1010.4 hPa 0 mm 2.68 m/s, 141° 467 W/m² -
1788406068 29.44° C 78% 1010.4 hPa 0 mm 1.34 m/s, 146° 889 W/m² -
1788406007 29.44° C 78% 1010.5 hPa 0 mm 0 m/s 828 W/m² -
1788405946 29.44° C 77% 1010.5 hPa 0 mm 2.24 m/s, 218° 743 W/m² -
1788405885 29.44° C 76% 1010.6 hPa 0 mm 1.79 m/s, 273° 175 W/m² -
1788405824 29.44° C 76% 1010.6 hPa 0 mm 1.79 m/s, 113° 213 W/m² -
1788405763 30° C 76% 1010.4 hPa 0 mm 1.79 m/s, 305° 325 W/m² -
1788405702 30° C 76% 1010.4 hPa 0 mm 1.79 m/s, 324° 350 W/m² -
1788405641 30° C 76% 1010.4 hPa 0 mm 1.34 m/s, 354° 781 W/m² -
1788405580 30° C 76% 1010.4 hPa 0 mm 0.89 m/s, 116° 745 W/m² -
1788405519 30° C 75% 1010.5 hPa 0 mm 1.79 m/s, 214° 708 W/m² -
1788405457 30° C 76% 1010.6 hPa 0 mm 2.24 m/s, 238° 184 W/m² -

* Rain latest hour (hover to see other rain measurements)
** Current wind speed in m/s (hover to see current wind gust speed)